| time (UTC) | temp F | wind direction | speed MPH | gust MPH | rain 1hr in | rain 24hr in | rain mn in | humidity % | barometer mb |
| 20260906201035 | 70 | 180 | 0.0 | 0.0 | 0.00 | 0.03 | 0.02 | 70 | 1031.0 |
| 20260906200133 | 70 | 67 | 0.0 | 1.0 | 0.00 | 0.03 | 0.02 | 70 | 1031.0 |
| 20260906195134 | 70 | 92 | 2.0 | 4.0 | 0.00 | 0.03 | 0.02 | 70 | 1030.9 |
| 20260906194135 | 70 | 254 | 0.0 | 0.0 | 0.00 | 0.03 | 0.02 | 70 | 1030.9 |
| 20260906193234 | 71 | 87 | 1.0 | 2.0 | 0.00 | 0.03 | 0.02 | 69 | 1031.0 |
| 20260906191336 | 70 | 292 | 1.0 | 3.0 | 0.00 | 0.03 | 0.02 | 69 | 1030.9 |
| 20260906190334 | 71 | 337 | 2.0 | 4.0 | 0.00 | 0.03 | 0.02 | 66 | 1030.9 |
| 20260906185336 | 73 | 312 | 2.0 | 4.0 | 0.00 | 0.03 | 0.02 | 61 | 1030.7 |
| 20260906183434 | 76 | 337 | 0.0 | 1.0 | 0.00 | 0.03 | 0.02 | 56 | 1030.8 |
| 20260906182436 | 76 | 337 | 0.0 | 1.0 | 0.00 | 0.03 | 0.02 | 58 | 1030.7 |
| 20260906181435 | 74 | 337 | 0.0 | 1.0 | 0.00 | 0.03 | 0.02 | 60 | 1030.8 |
| 20260906180435 | 75 | 337 | 1.0 | 2.0 | 0.00 | 0.03 | 0.02 | 60 | 1030.8 |
| 20260906175437 | 74 | 112 | 0.0 | 2.0 | 0.00 | 0.03 | 0.02 | 61 | 1030.9 |
| 20260906174434 | 73 | 90 | 1.0 | 3.0 | 0.00 | 0.03 | 0.02 | 63 | 1030.8 |
| 20260906173436 | 74 | 337 | 1.0 | 4.0 | 0.00 | 0.03 | 0.02 | 61 | 1031.1 |
| 20260906172436 | 73 | 337 | 0.0 | 1.0 | 0.00 | 0.03 | 0.02 | 64 | 1031.0 |
| 20260906171436 | 73 | 112 | 1.0 | 2.0 | 0.00 | 0.03 | 0.02 | 65 | 1031.1 |
| 20260906170535 | 72 | 250 | 2.0 | 5.0 | 0.00 | 0.03 | 0.02 | 67 | 1031.2 |
| 20260906165535 | 71 | 43 | 2.0 | 4.0 | 0.00 | 0.03 | 0.02 | 71 | 1031.4 |
| 20260906164538 | 71 | 336 | 2.0 | 2.0 | 0.00 | 0.03 | 0.02 | 70 | 1031.5 |
| 20260906163536 | 70 | 176 | 2.0 | 4.0 | 0.00 | 0.03 | 0.02 | 71 | 1031.6 |
| 20260906162635 | 70 | 64 | 1.0 | 3.0 | 0.00 | 0.03 | 0.02 | 72 | 1031.5 |
| 20260906161634 | 70 | 105 | 2.0 | 4.0 | 0.00 | 0.03 | 0.02 | 74 | 1031.5 |
| 20260906160637 | 69 | 83 | 2.0 | 4.0 | 0.00 | 0.03 | 0.02 | 74 | 1031.5 |
| 20260906155634 | 69 | 107 | 1.0 | 2.0 | 0.00 | 0.03 | 0.02 | 74 | 1031.5 |
| 20260906154636 | 69 | 97 | 1.0 | 4.0 | 0.00 | 0.03 | 0.02 | 76 | 1031.5 |
| 20260906153734 | 68 | 84 | 2.0 | 5.0 | 0.00 | 0.03 | 0.02 | 77 | 1031.6 |
| 20260906151735 | 68 | 88 | 2.0 | 5.0 | 0.00 | 0.03 | 0.02 | 78 | 1031.5 |
| 20260906145835 | 67 | 126 | 1.0 | 4.0 | 0.00 | 0.03 | 0.02 | 79 | 1031.7 |
| 20260906144835 | 68 | 76 | 1.0 | 5.0 | 0.00 | 0.03 | 0.02 | 79 | 1031.5 |
| 20260906143835 | 67 | 73 | 1.0 | 3.0 | 0.00 | 0.03 | 0.02 | 80 | 1031.4 |
| 20260906142835 | 67 | 56 | 0.0 | 2.0 | 0.00 | 0.03 | 0.02 | 80 | 1031.3 |
| 20260906141835 | 67 | 81 | 2.0 | 3.0 | 0.00 | 0.03 | 0.02 | 81 | 1031.4 |
| 20260906140833 | 67 | 179 | 1.0 | 3.0 | 0.00 | 0.03 | 0.02 | 80 | 1031.2 |
| 20260906135933 | 67 | 67 | 0.0 | 2.0 | 0.00 | 0.03 | 0.02 | 80 | 1031.3 |
| 20260906133936 | 67 | 87 | 2.0 | 4.0 | 0.00 | 0.03 | 0.02 | 81 | 1031.2 |
| 20260906132934 | 67 | 63 | 1.0 | 2.0 | 0.00 | 0.03 | 0.02 | 81 | 1031.0 |
| 20260906131936 | 67 | 97 | 1.0 | 3.0 | 0.00 | 0.03 | 0.02 | 81 | 1030.9 |
| 20260906130936 | 67 | 90 | 0.0 | 1.0 | 0.00 | 0.03 | 0.02 | 81 | 1031.0 |
| 20260906125936 | 66 | 180 | 0.0 | 0.0 | 0.00 | 0.03 | 0.02 | 82 | 1030.9 |
| 20260906125035 | 66 | 100 | 1.0 | 2.0 | 0.00 | 0.03 | 0.02 | 82 | 1030.8 |
| 20260906124133 | 66 | 68 | 2.0 | 4.0 | 0.00 | 0.03 | 0.02 | 83 | 1030.8 |
| 20260906123135 | 66 | 67 | 0.0 | 1.0 | 0.00 | 0.03 | 0.02 | 83 | 1030.8 |
| 20260906122136 | 66 | 180 | 0.0 | 0.0 | 0.00 | 0.03 | 0.02 | 86 | 1030.7 |
| 20260906120233 | 64 | 112 | 0.0 | 0.0 | 0.00 | 0.03 | 0.02 | 90 | 1030.4 |
| 20260906115236 | 63 | 90 | 0.0 | 0.0 | 0.00 | 0.03 | 0.02 | 91 | 1030.5 |
| 20260906113333 | 62 | 90 | 0.0 | 0.0 | 0.00 | 0.03 | 0.02 | 92 | 1030.2 |
| 20260906112334 | 61 | 90 | 0.0 | 0.0 | 0.00 | 0.03 | 0.02 | 91 | 1030.1 |
| 20260906111334 | 61 | 90 | 0.0 | 0.0 | 0.00 | 0.03 | 0.02 | 91 | 1030.2 |
| 20260906110336 | 61 | 90 | 0.0 | 0.0 | 0.00 | 0.03 | 0.02 | 91 | 1030.0 |
| 20260906105335 | 61 | 90 | 0.0 | 0.0 | 0.00 | 0.03 | 0.02 | 90 | 1029.6 |
| 20260906103436 | 61 | 90 | 0.0 | 0.0 | 0.00 | 0.03 | 0.02 | 89 | 1029.3 |
| 20260906102434 | 61 | 90 | 0.0 | 0.0 | 0.00 | 0.03 | 0.02 | 89 | 1029.4 |
| 20260906101435 | 62 | 90 | 0.0 | 0.0 | 0.00 | 0.03 | 0.02 | 89 | 1029.3 |
| 20260906100436 | 62 | 90 | 0.0 | 0.0 | 0.00 | 0.03 | 0.02 | 88 | 1029.3 |
| 20260906095434 | 62 | 90 | 0.0 | 0.0 | 0.00 | 0.03 | 0.02 | 89 | 1029.2 |
| 20260906093434 | 62 | 90 | 0.0 | 0.0 | 0.00 | 0.03 | 0.02 | 89 | 1029.2 |
| 20260906092533 | 62 | 90 | 0.0 | 0.0 | 0.00 | 0.03 | 0.02 | 88 | 1029.1 |
| 20260906091535 | 62 | 90 | 0.0 | 0.0 | 0.00 | 0.03 | 0.02 | 87 | 1028.7 |
| 20260906090536 | 62 | 90 | 0.0 | 0.0 | 0.00 | 0.03 | 0.02 | 87 | 1028.6 |
| 20260906085634 | 62 | 90 | 0.0 | 0.0 | 0.00 | 0.03 | 0.02 | 87 | 1028.6 |
| 20260906083733 | 62 | 90 | 0.0 | 0.0 | 0.00 | 0.03 | 0.02 | 87 | 1028.6 |
| 20260906082735 | 63 | 90 | 0.0 | 0.0 | 0.00 | 0.03 | 0.02 | 87 | 1028.7 |
| 20260906081735 | 63 | 337 | 0.0 | 0.0 | 0.00 | 0.03 | 0.02 | 87 | 1028.5 |
| 20260906080835 | 63 | 337 | 0.0 | 0.0 | 0.00 | 0.03 | 0.02 | 87 | 1028.5 |
| 20260906075835 | 63 | 67 | 0.0 | 1.0 | 0.00 | 0.03 | 0.02 | 87 | 1028.6 |
| 20260906074834 | 62 | 337 | 0.0 | 0.0 | 0.00 | 0.03 | 0.02 | 87 | 1028.6 |
| 20260906073835 | 62 | 67 | 0.0 | 1.0 | 0.00 | 0.03 | 0.02 | 87 | 1028.5 |
| 20260906072934 | 62 | 112 | 0.0 | 1.0 | 0.00 | 0.03 | 0.02 | 87 | 1028.3 |
| 20260906071936 | 63 | 67 | 0.0 | 0.0 | 0.00 | 0.03 | 0.02 | 87 | 1028.3 |
| 20260906071034 | 63 | 67 | 0.0 | 0.0 | 0.00 | 0.03 | 0.02 | 88 | 1028.4 |
| 20260906070037 | 63 | 67 | 0.0 | 1.0 | 0.00 | 0.03 | 0.02 | 88 | 1028.2 |
| 20260906065050 | 63 | 112 | 0.0 | 0.0 | 0.00 | 0.03 | 0.02 | 88 | 1028.3 |
| 20260906064135 | 63 | 160 | 1.0 | 2.0 | 0.00 | 0.03 | 0.02 | 88 | 1028.4 |
| 20260906063136 | 63 | 337 | 0.0 | 0.0 | 0.00 | 0.03 | 0.02 | 88 | 1028.6 |
| 20260906062135 | 64 | 337 | 0.0 | 0.0 | 0.00 | 0.03 | 0.02 | 88 | 1028.7 |
| 20260906061234 | 64 | 78 | 0.0 | 2.0 | 0.00 | 0.03 | 0.02 | 89 | 1028.7 |
| 20260906055336 | 65 | 90 | 0.0 | 1.0 | 0.00 | 0.03 | 0.02 | 91 | 1028.6 |
| 20260906053336 | 65 | 90 | 0.0 | 0.0 | 0.00 | 0.03 | 0.02 | 91 | 1028.5 |
| 20260906052336 | 65 | 90 | 0.0 | 0.0 | 0.00 | 0.03 | 0.02 | 91 | 1028.6 |
| 20260906051336 | 65 | 90 | 0.0 | 3.0 | 0.00 | 0.03 | 0.02 | 91 | 1028.5 |
| 20260906050335 | 66 | 90 | 0.0 | 1.0 | 0.01 | 0.03 | 0.02 | 91 | 1028.7 |
| 20260906045335 | 65 | 90 | 0.0 | 0.0 | 0.03 | 0.03 | 0.02 | 90 | 1028.8 |
| 20260906044335 | 65 | 90 | 0.0 | 0.0 | 0.03 | 0.03 | 0.02 | 90 | 1028.8 |
| 20260906042334 | 66 | 90 | 0.0 | 0.0 | 0.03 | 0.03 | 0.02 | 90 | 1028.8 |
| 20260906040337 | 66 | 299 | 0.0 | 1.0 | 0.02 | 0.02 | 0.01 | 88 | 1028.7 |
| 20260906034415 | 67 | 112 | 0.0 | 2.0 | 0.00 | 0.00 | 0.00 | 87 | 1028.7 |
| 20260906033416 | 67 | 67 | 0.0 | 1.0 | 0.00 | 0.00 | 0.00 | 87 | 1028.5 |
| 20260906032415 | 67 | 112 | 0.0 | 1.0 | 0.00 | 0.00 | 0.00 | 87 | 1028.3 |
| 20260906030416 | 67 | 90 | 0.0 | 1.0 | 0.00 | 0.00 | 0.00 | 87 | 1028.2 |
| 20260906025417 | 67 | 112 | 0.0 | 1.0 | 0.00 | 0.00 | 0.00 | 87 | 1028.0 |
| 20260906024417 | 67 | 90 | 1.0 | 3.0 | 0.00 | 0.00 | 0.00 | 86 | 1028.0 |
| 20260906022518 | 68 | 99 | 1.0 | 2.0 | 0.00 | 0.00 | 0.00 | 86 | 1027.9 |
| 20260906021515 | 68 | 90 | 0.0 | 1.0 | 0.00 | 0.00 | 0.00 | 86 | 1028.2 |
| 20260906020518 | 68 | 337 | 0.0 | 0.0 | 0.00 | 0.00 | 0.00 | 85 | 1028.1 |
| 20260906015514 | 68 | 112 | 0.0 | 1.0 | 0.00 | 0.00 | 0.00 | 84 | 1027.9 |
| 20260906013615 | 69 | 109 | 0.0 | 2.0 | 0.00 | 0.00 | 0.00 | 84 | 1027.8 |
| 20260906011615 | 69 | 82 | 0.0 | 1.0 | 0.00 | 0.00 | 0.00 | 82 | 1027.6 |
| 20260906010617 | 70 | 111 | 1.0 | 2.0 | 0.00 | 0.00 | 0.00 | 82 | 1027.5 |
| 20260906005616 | 70 | 70 | 0.0 | 3.0 | 0.00 | 0.00 | 0.00 | 81 | 1027.4 |
| 20260906004615 | 70 | 67 | 1.0 | 3.0 | 0.00 | 0.00 | 0.00 | 81 | 1027.4 |
| 20260906003714 | 70 | 67 | 0.0 | 1.0 | 0.00 | 0.00 | 0.00 | 80 | 1027.2 |
| 20260906002814 | 70 | 67 | 0.0 | 2.0 | 0.00 | 0.00 | 0.00 | 80 | 1026.9 |
| 20260906001816 | 70 | 67 | 1.0 | 1.0 | 0.00 | 0.00 | 0.00 | 79 | 1026.7 |
| 20260906000815 | 70 | 65 | 1.0 | 2.0 | 0.00 | 0.00 | 0.00 | 78 | 1026.6 |
| 20260905235816 | 70 | 100 | 1.0 | 2.0 | 0.00 | 0.00 | 0.00 | 78 | 1026.6 |
| 20260905234816 | 70 | 337 | 0.0 | 0.0 | 0.00 | 0.00 | 0.00 | 77 | 1026.5 |
| 20260905232817 | 71 | 337 | 0.0 | 0.0 | 0.00 | 0.00 | 0.00 | 76 | 1026.5 |
| 20260905225818 | 72 | 337 | 0.0 | 0.0 | 0.00 | 0.00 | 0.00 | 75 | 1026.1 |
| 20260905224915 | 72 | 337 | 0.0 | 0.0 | 0.00 | 0.00 | 0.00 | 72 | 1026.1 |
| 20260905222915 | 74 | 337 | 0.0 | 0.0 | 0.00 | 0.00 | 0.00 | 69 | 1026.0 |
| 20260905221916 | 75 | 337 | 0.0 | 0.0 | 0.00 | 0.00 | 0.00 | 67 | 1026.0 |
| 20260905220914 | 75 | 180 | 0.0 | 0.0 | 0.00 | 0.00 | 0.00 | 66 | 1025.9 |
| 20260905214915 | 76 | 337 | 0.0 | 0.0 | 0.00 | 0.00 | 0.00 | 65 | 1026.1 |
| 20260905213915 | 76 | 337 | 0.0 | 0.0 | 0.00 | 0.00 | 0.00 | 64 | 1025.8 |
| 20260905212917 | 75 | 315 | 0.0 | 0.0 | 0.00 | 0.00 | 0.00 | 64 | 1025.8 |
| 20260905211915 | 75 | 315 | 0.0 | 1.0 | 0.00 | 0.00 | 0.00 | 64 | 1025.7 |
| 20260905210916 | 75 | 337 | 0.0 | 0.0 | 0.00 | 0.00 | 0.00 | 65 | 1025.6 |
| 20260905205915 | 75 | 337 | 0.0 | 0.0 | 0.00 | 0.00 | 0.00 | 65 | 1025.5 |
| 20260905205015 | 75 | 337 | 0.0 | 0.0 | 0.00 | 0.00 | 0.00 | 67 | 1025.6 |
| 20260905204113 | 75 | 182 | 0.0 | 2.0 | 0.00 | 0.00 | 0.00 | 66 | 1025.5 |